GW3565 Weather Reports


time (UTC)temp
F
wind
direction
speed
knots
gust
knots
rain 1hr
in
rain 24hr
in
rain mn
in
humidity
%
barometer
mb
20260504035511 65 184 0.9 4.3 0.00 0.00 0.00 38 993.2
20260504035014 65 168 0.9 7.8 0.00 0.00 0.00 39 993.2
20260504034519 65 224 1.7 7.8 0.00 0.00 0.00 38 993.3
20260504034013 66 200 1.7 3.5 0.00 0.00 0.00 37 993.4
20260504033511 66 258 0.9 5.2 0.00 0.00 0.00 37 993.7
20260504033019 66 249 0.9 11.3 0.00 0.00 0.00 37 993.6
20260504032507 66 307 1.7 12.2 0.00 0.00 0.00 36 993.7
20260504032011 66 288 5.2 12.2 0.00 0.00 0.00 37 993.8
20260504031522 66 259 5.2 11.3 0.00 0.00 0.00 35 994.2
20260504031013 66 217 5.2 11.3 0.00 0.00 0.00 33 994.2
20260504030514 67 320 7.0 10.4 0.00 0.00 0.00 33 994.5
20260504030027 67 192 3.5 18.2 0.00 0.00 0.00 32 993.0
20260504025512 67 185 7.8 18.2 0.00 0.00 0.00 32 993.0
20260504025011 67 169 7.8 13.9 0.00 0.00 0.00 31 992.9
20260504024529 67 176 4.3 15.6 0.00 0.00 0.00 31 993.2
20260504024011 67 170 6.1 15.6 0.00 0.00 0.00 31 993.3
20260504023507 67 165 6.1 12.2 0.00 0.00 0.00 31 993.3
20260504023027 68 182 6.1 14.8 0.00 0.00 0.00 30 993.4
20260504022511 68 177 7.0 16.5 0.00 0.00 0.00 30 993.5
20260504022010 68 169 7.8 16.5 0.00 0.00 0.00 30 993.8
20260504021521 68 169 5.2 12.2 0.00 0.00 0.00 30 993.9
20260504021010 69 174 5.2 10.4 0.00 0.00 0.00 30 994.0
20260504020508 69 180 5.2 10.4 0.00 0.00 0.00 30 994.1
20260504020026 69 173 5.2 10.4 0.00 0.00 0.00 29 994.2
20260504015503 69 144 4.3 12.2 0.00 0.00 0.00 29 994.3
20260504015004 70 157 4.3 12.2 0.00 0.00 0.00 28 994.3
20260504014508 70 167 4.3 10.4 0.00 0.00 0.00 28 994.5
20260504014004 70 177 5.2 10.4 0.00 0.00 0.00 28 994.6
20260504013508 70 169 5.2 9.6 0.00 0.00 0.00 28 994.8
20260504013017 70 186 6.1 9.6 0.00 0.00 0.00 28 995.0
20260504012505 70 200 5.2 10.4 0.00 0.00 0.00 28 995.1
20260504012003 71 208 3.5 10.4 0.00 0.00 0.00 28 995.2
20260504011518 71 165 5.2 9.6 0.00 0.00 0.00 27 995.3
20260504011008 71 229 5.2 11.3 0.00 0.00 0.00 27 995.4
20260504010503 71 174 4.3 11.3 0.00 0.00 0.00 27 995.5
20260504010010 71 191 3.5 10.4 0.00 0.00 0.00 27 995.7
20260504005508 71 161 3.5 10.4 0.00 0.00 0.00 27 995.8
20260504005011 71 175 4.3 11.3 0.00 0.00 0.00 27 996.0
20260504004506 72 210 3.5 11.3 0.00 0.00 0.00 26 996.1
20260504004002 72 194 3.5 10.4 0.00 0.00 0.00 27 996.2
20260504003506 72 198 4.3 13.0 0.00 0.00 0.00 27 996.3
20260504003009 72 217 5.2 13.0 0.00 0.00 0.00 26 996.2
20260504002505 72 262 4.3 11.3 0.00 0.00 0.00 26 996.3
20260504002009 72 217 3.5 11.3 0.00 0.00 0.00 25 996.5
20260504001512 72 259 3.5 11.3 0.00 0.00 0.00 25 996.7
20260504001002 72 265 4.3 13.0 0.00 0.00 0.00 25 996.8
20260504000507 72 277 5.2 14.8 0.00 0.00 0.00 24 996.9
20260504000019 73 220 7.8 16.5 0.00 0.00 0.00 24 997.1
20260503235509 73 311 8.7 16.5 0.00 0.00 0.00 24 997.1
20260503235005 73 221 7.0 15.6 0.00 0.00 0.00 25 997.2
20260503234517 73 196 5.2 15.6 0.00 0.00 0.00 24 997.4
20260503234009 73 275 7.0 14.8 0.00 0.00 0.00 24 997.4
20260503233503 73 284 6.1 13.9 0.00 0.00 0.00 24 997.5
20260503233015 73 236 4.3 13.9 0.00 0.00 0.00 24 997.6
20260503232505 73 192 6.1 16.5 0.00 0.00 0.00 23 997.7
20260503232003 73 209 7.0 16.5 0.00 0.00 0.00 23 997.9
20260503231514 73 253 7.0 16.5 0.00 0.00 0.00 24 997.9
20260503231006 73 242 6.1 14.8 0.00 0.00 0.00 24 998.0
20260503230508 73 194 6.1 14.8 0.00 0.00 0.00 25 998.3
20260503230008 73 300 5.2 17.4 0.00 0.00 0.00 25 998.4
20260503225508 73 270 5.2 17.4 0.00 0.00 0.00 25 998.4
20260503225014 73 236 9.6 17.4 0.00 0.00 0.00 25 998.4
20260503224520 73 290 5.2 17.4 0.00 0.00 0.00 24 998.5
20260503224005 73 262 6.1 17.4 0.00 0.00 0.00 26 998.6
20260503223510 73 254 4.3 13.9 0.00 0.00 0.00 26 998.8
20260503223024 73 204 3.5 13.9 0.00 0.00 0.00 26 998.8
20260503222509 73 238 4.3 14.8 0.00 0.00 0.00 27 999.0
20260503222007 72 236 3.5 14.8 0.00 0.00 0.00 27 999.3
20260503221507 72 177 4.3 11.3 0.00 0.00 0.00 27 999.4
20260503221006 72 194 5.2 15.6 0.00 0.00 0.00 27 999.6
20260503220507 72 242 4.3 15.6 0.00 0.00 0.00 27 999.7
20260503220012 72 249 5.2 13.9 0.00 0.00 0.00 27 999.9
20260503215510 72 248 5.2 14.8 0.00 0.00 0.00 26 1000.0
20260503215006 72 224 4.3 16.5 0.00 0.00 0.00 26 1000.1
20260503214518 72 242 7.8 16.5 0.00 0.00 0.00 27 1000.1
20260503214009 72 213 7.0 14.8 0.00 0.00 0.00 26 1000.3
20260503213513 73 264 5.2 12.2 0.00 0.00 0.00 26 1000.6
20260503213012 73 208 7.0 13.9 0.00 0.00 0.00 26 1000.6
20260503212508 73 248 6.1 14.8 0.00 0.00 0.00 26 1000.7
20260503212013 74 267 4.3 14.8 0.00 0.00 0.00 26 1000.8
20260503211529 74 254 4.3 12.2 0.00 0.00 0.00 27 1001.1
20260503211006 74 233 4.3 13.0 0.00 0.00 0.00 25 1001.1
20260503210510 74 287 5.2 13.0 0.00 0.00 0.00 28 1001.4
20260503210010 74 189 6.1 13.0 0.00 0.00 0.00 25 1001.5
20260503205507 74 202 3.5 14.8 0.00 0.00 0.00 27 1001.7
20260503205008 75 193 4.3 15.6 0.00 0.00 0.00 27 1002.0
20260503204519 75 286 6.1 15.6 0.00 0.00 0.00 26 1002.1
20260503204008 75 195 6.1 15.6 0.00 0.00 0.00 25 1002.3
20260503203507 74 209 4.3 15.6 0.00 0.00 0.00 27 1002.4
20260503203024 74 234 6.1 15.6 0.00 0.00 0.00 26 1002.6
20260503202509 74 208 5.2 12.2 0.00 0.00 0.00 28 1002.7
20260503202007 74 267 4.3 13.9 0.00 0.00 0.00 26 1002.8
20260503201520 74 257 5.2 16.5 0.00 0.00 0.00 26 1002.9
20260503201011 74 240 7.8 16.5 0.00 0.00 0.00 27 1003.0
20260503200514 74 262 4.3 13.0 0.00 0.00 0.00 28 1003.1
20260503200017 74 275 7.8 13.0 0.00 0.00 0.00 26 1003.5
20260503195509 74 223 3.5 13.9 0.00 0.00 0.00 29 1003.4
20260503195014 74 196 6.1 16.5 0.00 0.00 0.00 28 1003.6
20260503194514 74 236 5.2 20.0 0.00 0.00 0.00 26 1003.7
20260503194005 74 272 7.8 20.0 0.00 0.00 0.00 28 1004.0
20260503193508 74 236 7.8 20.0 0.00 0.00 0.00 27 1003.8
20260503193019 73 275 6.1 13.0 0.00 0.00 0.00 31 1003.8
20260503192505 73 258 4.3 13.9 0.00 0.00 0.00 29 1004.0
20260503192007 73 295 6.1 13.9 0.00 0.00 0.00 28 1004.0
20260503191534 73 277 5.2 13.9 0.00 0.00 0.00 29 1004.2
20260503191007 73 249 5.2 13.0 0.00 0.00 0.00 28 1004.2
20260503190508 73 285 6.1 12.2 0.00 0.00 0.00 28 1004.4
20260503190024 73 179 4.3 12.2 0.00 0.00 0.00 30 1004.6
20260503185510 72 249 3.5 12.2 0.00 0.00 0.00 31 1004.7
20260503185005 72 232 4.3 13.9 0.00 0.00 0.00 30 1005.0
20260503184522 72 244 5.2 13.9 0.00 0.00 0.00 31 1005.1
20260503184010 72 283 6.1 13.0 0.00 0.00 0.00 30 1005.4
20260503183514 71 263 5.2 13.9 0.00 0.00 0.00 30 1005.5
20260503183014 70 309 5.2 13.9 0.00 0.00 0.00 32 1005.6
20260503182507 70 175 5.2 11.3 0.00 0.00 0.00 30 1005.9
20260503182010 70 329 6.1 11.3 0.00 0.00 0.00 30 1006.0
20260503181517 69 299 3.5 11.3 0.00 0.00 0.00 31 1006.0
20260503181008 69 240 4.3 11.3 0.00 0.00 0.00 31 1006.2
20260503180512 69 245 3.5 11.3 0.00 0.00 0.00 34 1006.4
20260503180032 69 286 3.5 10.4 0.00 0.00 0.00 30 1006.5
20260503175507 69 252 2.6 10.4 0.00 0.00 0.00 32 1006.7
20260503175010 69 311 3.5 9.6 0.00 0.00 0.00 32 1006.7
20260503174525 69 306 5.2 9.6 0.00 0.00 0.00 31 1006.8
20260503174010 68 345 4.3 11.3 0.00 0.00 0.00 31 1006.9
20260503173512 68 211 5.2 13.9 0.00 0.00 0.00 31 1007.1
20260503173026 68 287 3.5 13.9 0.00 0.00 0.00 29 1007.2
20260503172512 68 257 6.1 13.0 0.00 0.00 0.00 31 1007.3
20260503172011 67 268 4.3 10.4 0.00 0.00 0.00 31 1007.3
20260503171516 67 293 5.2 10.4 0.00 0.00 0.00 30 1007.5
20260503171006 67 203 4.3 10.4 0.00 0.00 0.00 30 1007.7
20260503170507 67 281 3.5 10.4 0.00 0.00 0.00 34 1007.7
20260503151002 57 326 1.7 6.1 0.00 0.00 0.00 37 1009.6
20260503150505 56 228 0.9 5.2 0.00 0.00 0.00 39 1009.7
20260503131003 42 252 2.6 6.1 0.00 0.00 0.00 66 1010.8
20260503130506 40 263 1.7 3.5 0.00 0.00 0.00 68 1010.8
20260503110510 34 263 0.0 0.9 0.00 0.00 0.00 69 1010.1
20260503090508 42 352 0.0 3.5 0.00 0.00 0.00 59 1010.0
20260503081525 43 345 2.6 10.4 0.00 0.00 0.00 56 1009.7
20260503081009 43 350 4.3 10.4 0.00 0.00 0.00 55 1009.8
20260503080506 44 325 1.7 7.8 0.00 0.00 0.00 55 1009.7
20260503072506 45 344 2.6 7.8 0.00 0.00 0.00 55 1009.7
20260503072004 45 315 1.7 7.8 0.00 0.00 0.00 55 1009.7
20260503071513 45 360 0.9 7.0 0.00 0.00 0.00 56 1009.7
20260503071007 45 10 1.7 4.3 0.00 0.00 0.00 57 1009.6
20260503070506 45 5 2.6 6.1 0.00 0.00 0.00 57 1009.6
20260503055003 50 327 3.5 7.8 0.00 0.00 0.00 58 1009.2
20260503054517 50 360 1.7 7.8 0.00 0.00 0.00 58 1009.2
20260503054006 50 326 4.3 7.8 0.00 0.00 0.00 58 1009.1
20260503053504 50 336 3.5 9.6 0.00 0.00 0.00 58 1009.1
20260503053008 51 17 3.5 9.6 0.00 0.00 0.00 58 1009.0
20260503052509 51 336 2.6 7.8 0.00 0.00 0.00 57 1009.0
20260503052003 51 9 4.3 10.4 0.00 0.00 0.00 57 1008.9
20260503051510 51 352 2.6 10.4 0.00 0.00 0.00 57 1009.0
20260503051004 52 343 3.5 8.7 0.00 0.00 0.00 57 1008.9
20260503050506 52 344 4.3 9.6 0.00 0.00 0.00 57 1008.9
20260503050013 52 5 4.3 11.3 0.00 0.00 0.00 56 1008.9
20260503045507 53 337 3.5 11.3 0.00 0.00 0.00 56 1008.9
20260503045009 53 344 3.5 11.3 0.00 0.00 0.00 55 1008.9
20260503044517 53 326 3.5 9.6 0.00 0.00 0.00 55 1008.8
20260503044003 53 309 4.3 10.4 0.00 0.00 0.00 55 1008.9
20260503043507 53 323 5.2 11.3 0.00 0.00 0.00 56 1008.8
20260503043036 53 331 6.1 11.3 0.00 0.00 0.00 56 1008.8
20260503042513 53 338 2.6 11.3 0.00 0.00 0.00 56 1008.8
20260503042008 52 5 5.2 10.4 0.00 0.00 0.00 57 1008.8
20260503041516 52 344 2.6 11.3 0.00 0.00 0.00 58 1008.8
20260503041016 52 348 5.2 11.3 0.00 0.00 0.00 59 1008.8
20260503040504 51 338 4.3 8.7 0.00 0.00 0.00 60 1008.8
20260503040008 51 350 3.5 7.0 0.00 0.00 0.00 63 1008.8